Time,TemperatureF,DewpointF,PressureIn,WindDirection,WindDirectionDegrees,WindSpeedMPH,WindSpeedGustMPH,Humidity,HourlyPrecipIn,Conditions,Clouds,dailyrainin,SoftwareType,DateUTC
2013-10-22 00:09:00,28.0,22.3,30.23,SW,229,0.0,0.0,79,0.00,,,0.00,Wunderground v.1.15,2013-10-22 06:09:00,
2013-10-22 00:14:00,28.0,22.3,30.22,SW,229,0.0,0.0,79,0.00,,,0.00,Wunderground v.1.15,2013-10-22 06:14:00,
2013-10-22 00:19:00,27.9,22.2,30.23,SW,229,0.0,0.0,79,0.00,,,0.00,Wunderground v.1.15,2013-10-22 06:19:00,
2013-10-22 00:24:00,27.8,22.4,30.23,SW,229,0.0,0.0,80,0.00,,,0.00,Wunderground v.1.15,2013-10-22 06:24:00,
2013-10-22 00:33:00,27.8,22.4,30.23,SW,229,0.0,0.0,80,0.00,,,0.00,Wunderground v.1.15,2013-10-22 06:33:00,
2013-10-22 00:38:00,27.6,22.2,30.23,SW,229,0.0,0.0,80,0.00,,,0.00,Wunderground v.1.15,2013-10-22 06:38:00,
2013-10-22 00:44:00,27.6,22.2,30.23,SW,229,0.0,0.0,80,0.00,,,0.00,Wunderground v.1.15,2013-10-22 06:44:00,
2013-10-22 00:49:00,27.6,22.2,30.23,SW,229,0.0,0.0,80,0.00,,,0.00,Wunderground v.1.15,2013-10-22 06:49:00,
2013-10-22 00:54:00,27.7,22.3,30.23,SW,229,0.0,0.0,80,0.00,,,0.00,Wunderground v.1.15,2013-10-22 06:54:00,
2013-10-22 01:03:00,27.9,22.5,30.23,SW,217,0.0,0.0,80,0.00,,,0.00,Wunderground v.1.15,2013-10-22 07:03:00,
2013-10-22 01:14:00,28.2,22.2,30.23,SSW,207,0.0,0.0,78,0.00,,,0.00,Wunderground v.1.15,2013-10-22 07:14:00,
2013-10-22 01:19:00,28.1,22.4,30.24,SSW,207,0.0,0.0,79,0.00,,,0.00,Wunderground v.1.15,2013-10-22 07:19:00,
2013-10-22 01:24:00,28.0,22.3,30.24,SSW,207,0.0,0.0,79,0.00,,,0.00,Wunderground v.1.15,2013-10-22 07:24:00,
2013-10-22 01:29:00,28.0,22.3,30.25,SSW,207,0.0,0.0,79,0.00,,,0.00,Wunderground v.1.15,2013-10-22 07:29:00,
2013-10-22 01:34:00,27.8,22.1,30.25,SSW,207,0.0,0.0,79,0.00,,,0.00,Wunderground v.1.15,2013-10-22 07:34:00,
2013-10-22 01:43:00,27.6,22.2,30.25,SSW,207,0.0,0.0,80,0.00,,,0.00,Wunderground v.1.15,2013-10-22 07:43:00,
2013-10-22 01:48:00,27.6,22.2,30.26,SSW,207,0.0,0.0,80,0.00,,,0.00,Wunderground v.1.15,2013-10-22 07:48:00,
2013-10-22 01:53:00,27.5,22.1,30.26,SSW,207,0.0,0.0,80,0.00,,,0.00,Wunderground v.1.15,2013-10-22 07:53:00,
2013-10-22 01:59:00,27.5,22.1,30.26,SSW,207,0.0,0.0,80,0.00,,,0.00,Wunderground v.1.15,2013-10-22 07:59:00,
2013-10-22 02:09:00,27.4,22.0,30.26,SSW,207,0.0,0.0,80,0.00,,,0.00,Wunderground v.1.15,2013-10-22 08:09:00,
2013-10-22 02:14:00,27.3,21.9,30.26,SSW,207,0.0,0.0,80,0.00,,,0.00,Wunderground v.1.15,2013-10-22 08:14:00,
2013-10-22 02:24:00,27.2,22.1,30.27,SSW,207,0.0,0.0,81,0.00,,,0.00,Wunderground v.1.15,2013-10-22 08:24:00,
2013-10-22 02:29:00,27.2,22.1,30.27,SSW,207,0.0,0.0,81,0.00,,,0.00,Wunderground v.1.15,2013-10-22 08:29:00,
2013-10-22 02:38:00,27.0,21.9,30.27,SSW,207,0.0,0.0,81,0.00,,,0.00,Wunderground v.1.15,2013-10-22 08:38:00,
2013-10-22 02:43:00,27.0,21.9,30.27,SSW,207,0.0,0.0,81,0.00,,,0.00,Wunderground v.1.15,2013-10-22 08:43:00,
2013-10-22 02:48:00,26.9,22.1,30.27,SSW,207,0.0,0.0,82,0.00,,,0.00,Wunderground v.1.15,2013-10-22 08:48:00,
2013-10-22 02:59:00,26.9,22.1,30.27,SSW,207,0.0,0.0,82,0.00,,,0.00,Wunderground v.1.15,2013-10-22 08:59:00,
2013-10-22 03:08:00,26.8,22.0,30.27,SSW,207,0.0,0.0,82,0.00,,,0.00,Wunderground v.1.15,2013-10-22 09:08:00,
2013-10-22 03:13:00,26.7,21.9,30.26,SSW,207,0.0,0.0,82,0.00,,,0.00,Wunderground v.1.15,2013-10-22 09:13:00,
2013-10-22 03:18:00,26.6,21.8,30.26,SSW,207,0.0,0.0,82,0.00,,,0.00,Wunderground v.1.15,2013-10-22 09:18:00,
2013-10-22 03:24:00,26.6,21.8,30.26,SSW,207,0.0,0.0,82,0.00,,,0.00,Wunderground v.1.15,2013-10-22 09:24:00,
2013-10-22 03:34:00,26.2,21.7,30.26,SSW,207,0.0,0.0,83,0.00,,,0.00,Wunderground v.1.15,2013-10-22 09:34:00,
2013-10-22 03:39:00,26.1,21.6,30.26,SSW,207,0.0,0.0,83,0.00,,,0.00,Wunderground v.1.15,2013-10-22 09:39:00,
2013-10-22 03:44:00,26.0,21.5,30.26,SSW,207,0.0,0.0,83,0.00,,,0.00,Wunderground v.1.15,2013-10-22 09:44:00,
2013-10-22 03:49:00,25.8,21.6,30.25,SSW,207,0.0,0.0,84,0.00,,,0.00,Wunderground v.1.15,2013-10-22 09:49:00,
2013-10-22 03:54:00,25.7,21.5,30.26,SSW,207,0.0,0.0,84,0.00,,,0.00,Wunderground v.1.15,2013-10-22 09:54:00,
2013-10-22 03:59:00,25.6,21.4,30.26,SSW,207,0.0,0.0,84,0.00,,,0.00,Wunderground v.1.15,2013-10-22 09:59:00,
2013-10-22 04:14:00,25.5,21.3,30.26,SSW,207,0.0,0.0,84,0.00,,,0.00,Wunderground v.1.15,2013-10-22 10:14:00,
2013-10-22 04:19:00,25.4,21.2,30.26,SSW,207,0.0,0.0,84,0.00,,,0.00,Wunderground v.1.15,2013-10-22 10:19:00,
2013-10-22 04:24:00,25.4,21.2,30.26,SSW,207,0.0,0.0,84,0.00,,,0.00,Wunderground v.1.15,2013-10-22 10:24:00,
2013-10-22 04:29:00,25.3,21.1,30.26,SSW,207,0.0,0.0,84,0.00,,,0.00,Wunderground v.1.15,2013-10-22 10:29:00,
2013-10-22 04:34:00,25.3,21.1,30.26,SSW,207,0.0,0.0,84,0.00,,,0.00,Wunderground v.1.15,2013-10-22 10:34:00,
2013-10-22 04:44:00,25.2,21.3,30.27,SSW,207,0.0,0.0,85,0.00,,,0.00,Wunderground v.1.15,2013-10-22 10:44:00,
2013-10-22 04:49:00,25.2,21.3,30.27,SSW,207,0.0,0.0,85,0.00,,,0.00,Wunderground v.1.15,2013-10-22 10:49:00,
2013-10-22 04:54:00,25.2,21.3,30.28,SSW,207,0.0,0.0,85,0.00,,,0.00,Wunderground v.1.15,2013-10-22 10:54:00,
2013-10-22 04:59:00,25.1,20.9,30.28,SSW,207,0.0,0.0,84,0.00,,,0.00,Wunderground v.1.15,2013-10-22 10:59:00,
2013-10-22 05:09:00,25.1,21.2,30.28,SSW,207,0.0,0.0,85,0.00,,,0.00,Wunderground v.1.15,2013-10-22 11:09:00,
2013-10-22 05:19:00,24.9,21.0,30.28,SSW,207,0.0,0.0,85,0.00,,,0.00,Wunderground v.1.15,2013-10-22 11:19:00,
2013-10-22 05:24:00,24.8,20.9,30.28,SSW,207,0.0,0.0,85,0.00,,,0.00,Wunderground v.1.15,2013-10-22 11:24:00,
2013-10-22 05:29:00,24.8,20.9,30.28,SSW,207,0.0,0.0,85,0.00,,,0.00,Wunderground v.1.15,2013-10-22 11:29:00,
2013-10-22 05:34:00,24.7,20.8,30.28,SSW,207,0.0,0.0,85,0.00,,,0.00,Wunderground v.1.15,2013-10-22 11:34:00,
2013-10-22 05:39:00,24.7,20.8,30.28,SSW,207,0.0,0.0,85,0.00,,,0.00,Wunderground v.1.15,2013-10-22 11:39:00,
2013-10-22 05:44:00,24.7,20.8,30.29,SSW,207,0.0,0.0,85,0.00,,,0.00,Wunderground v.1.15,2013-10-22 11:44:00,
2013-10-22 05:54:00,24.5,20.6,30.29,SSW,207,0.0,0.0,85,0.00,,,0.00,Wunderground v.1.15,2013-10-22 11:54:00,
2013-10-22 05:59:00,24.6,20.7,30.29,SSW,207,0.0,0.0,85,0.00,,,0.00,Wunderground v.1.15,2013-10-22 11:59:00,
2013-10-22 06:09:00,24.4,20.5,30.29,SSW,207,0.0,0.0,85,0.00,,,0.00,Wunderground v.1.15,2013-10-22 12:09:00,
2013-10-22 06:18:00,24.3,20.4,30.29,SSW,207,0.0,0.0,85,0.00,,,0.00,Wunderground v.1.15,2013-10-22 12:18:00,
2013-10-22 06:24:00,24.3,20.4,30.29,SSW,207,0.0,0.0,85,0.00,,,0.00,Wunderground v.1.15,2013-10-22 12:24:00,
2013-10-22 06:29:00,24.3,20.4,30.30,SSW,207,0.0,0.0,85,0.00,,,0.00,Wunderground v.1.15,2013-10-22 12:29:00,
2013-10-22 06:39:00,24.1,20.2,30.30,SSW,207,0.0,0.0,85,0.00,,,0.00,Wunderground v.1.15,2013-10-22 12:39:00,
2013-10-22 06:44:00,24.0,20.1,30.30,SSW,207,0.0,0.0,85,0.00,,,0.00,Wunderground v.1.15,2013-10-22 12:44:00,
2013-10-22 06:49:00,24.0,20.1,30.30,SSW,207,0.0,0.0,85,0.00,,,0.00,Wunderground v.1.15,2013-10-22 12:49:00,
2013-10-22 06:54:00,24.1,20.2,30.30,SSW,207,0.0,0.0,85,0.00,,,0.00,Wunderground v.1.15,2013-10-22 12:54:00,
2013-10-22 06:59:00,24.2,20.3,30.30,SSW,207,0.0,0.0,85,0.00,,,0.00,Wunderground v.1.15,2013-10-22 12:59:00,
2013-10-22 07:09:00,24.5,20.4,30.31,SE,134,0.0,0.0,84,0.00,,,0.00,Wunderground v.1.15,2013-10-22 13:09:00,
2013-10-22 07:14:00,24.6,20.5,30.31,SSE,155,0.0,0.0,84,0.00,,,0.00,Wunderground v.1.15,2013-10-22 13:14:00,
2013-10-22 07:19:00,24.6,20.5,30.31,SSW,194,0.0,0.0,84,0.00,,,0.00,Wunderground v.1.15,2013-10-22 13:19:00,
2013-10-22 07:24:00,24.7,20.3,30.31,SSW,194,0.0,0.0,83,0.00,,,0.00,Wunderground v.1.15,2013-10-22 13:24:00,
2013-10-22 07:29:00,24.9,20.5,30.32,SSW,196,0.0,0.0,83,0.00,,,0.00,Wunderground v.1.15,2013-10-22 13:29:00,
2013-10-22 07:34:00,24.9,20.5,30.32,SSW,196,0.0,0.0,83,0.00,,,0.00,Wunderground v.1.15,2013-10-22 13:34:00,
2013-10-22 07:39:00,25.0,20.6,30.32,East,97,0.0,2.0,83,0.00,,,0.00,Wunderground v.1.15,2013-10-22 13:39:00,
2013-10-22 07:49:00,25.5,20.5,30.32,ESE,119,0.0,0.0,81,0.00,,,0.00,Wunderground v.1.15,2013-10-22 13:49:00,
2013-10-22 07:54:00,25.4,20.7,30.32,ENE,78,0.0,0.0,82,0.00,,,0.00,Wunderground v.1.15,2013-10-22 13:54:00,
2013-10-22 07:59:00,25.6,20.9,30.33,East,86,0.0,0.0,82,0.00,,,0.00,Wunderground v.1.15,2013-10-22 13:59:00,
2013-10-22 08:09:00,25.7,20.7,30.33,East,87,0.0,0.0,81,0.00,,,0.00,Wunderground v.1.15,2013-10-22 14:09:00,
2013-10-22 08:14:00,25.8,20.8,30.33,East,94,0.0,1.0,81,0.00,,,0.00,Wunderground v.1.15,2013-10-22 14:14:00,
2013-10-22 08:19:00,26.4,21.1,30.33,East,92,0.0,0.0,80,0.00,,,0.00,Wunderground v.1.15,2013-10-22 14:19:00,
2013-10-22 08:24:00,26.6,21.3,30.34,East,91,0.0,0.0,80,0.00,,,0.00,Wunderground v.1.15,2013-10-22 14:24:00,
2013-10-22 08:29:00,27.3,21.6,30.34,East,93,1.0,3.0,79,0.00,,,0.00,Wunderground v.1.15,2013-10-22 14:29:00,
2013-10-22 08:34:00,27.6,21.6,30.34,ESE,103,1.0,3.0,78,0.00,,,0.00,Wunderground v.1.15,2013-10-22 14:34:00,
2013-10-22 08:39:00,27.7,22.0,30.34,SE,126,0.0,2.0,79,0.00,,,0.00,Wunderground v.1.15,2013-10-22 14:39:00,
2013-10-22 08:49:00,28.8,22.8,30.34,SE,126,0.0,0.0,78,0.00,,,0.00,Wunderground v.1.15,2013-10-22 14:49:00,
2013-10-22 08:54:00,29.4,23.1,30.34,SE,126,0.0,0.0,77,0.00,,,0.00,Wunderground v.1.15,2013-10-22 14:54:00,
2013-10-22 08:59:00,30.3,23.6,30.34,SE,126,0.0,0.0,76,0.00,,,0.00,Wunderground v.1.15,2013-10-22 14:59:00,
2013-10-22 09:09:00,31.6,24.3,30.34,East,96,0.0,0.0,74,0.00,,,0.00,Wunderground v.1.15,2013-10-22 15:09:00,
2013-10-22 09:14:00,32.1,24.7,30.34,East,96,0.0,0.0,74,0.00,,,0.00,Wunderground v.1.15,2013-10-22 15:14:00,
2013-10-22 09:24:00,34.6,25.1,30.34,SSE,161,0.0,0.0,68,0.00,,,0.00,Wunderground v.1.15,2013-10-22 15:24:00,
2013-10-22 09:29:00,34.8,25.7,30.33,East,93,0.0,0.0,69,0.00,,,0.00,Wunderground v.1.15,2013-10-22 15:29:00,
2013-10-22 09:34:00,36.6,25.6,30.33,East,93,0.0,0.0,64,0.00,,,0.00,Wunderground v.1.15,2013-10-22 15:34:00,
2013-10-22 09:39:00,37.5,26.0,30.33,East,95,0.0,0.0,63,0.00,,,0.00,Wunderground v.1.15,2013-10-22 15:39:00,
2013-10-22 09:49:00,38.4,26.5,30.33,East,95,0.0,0.0,62,0.00,,,0.00,Wunderground v.1.15,2013-10-22 15:49:00,
2013-10-22 09:59:00,40.3,25.8,30.33,East,95,0.0,0.0,56,0.00,,,0.00,Wunderground v.1.15,2013-10-22 15:59:00,
2013-10-22 10:09:00,42.6,25.2,30.32,East,95,0.0,0.0,50,0.00,,,0.00,Wunderground v.1.15,2013-10-22 16:09:00,
2013-10-22 10:19:00,45.5,27.9,30.32,East,95,0.0,0.0,50,0.00,,,0.00,Wunderground v.1.15,2013-10-22 16:19:00,
2013-10-22 10:24:00,47.6,26.7,30.32,NNW,337,0.0,4.0,44,0.00,,,0.00,Wunderground v.1.15,2013-10-22 16:24:00,
2013-10-22 10:34:00,50.4,20.9,30.32,NNW,337,1.0,2.0,31,0.00,,,0.00,Wunderground v.1.15,2013-10-22 16:34:00,
2013-10-22 10:44:00,51.2,18.3,30.32,North,350,1.0,2.0,27,0.00,,,0.00,Wunderground v.1.15,2013-10-22 16:44:00,
2013-10-22 10:49:00,51.3,19.3,30.32,NNW,337,1.0,1.0,28,0.00,,,0.00,Wunderground v.1.15,2013-10-22 16:49:00,
2013-10-22 10:54:00,51.3,19.3,30.32,NNW,337,2.0,4.0,28,0.00,,,0.00,Wunderground v.1.15,2013-10-22 16:54:00,
2013-10-22 10:59:00,51.4,19.3,30.32,NNW,329,3.0,4.0,28,0.00,,,0.00,Wunderground v.1.15,2013-10-22 16:59:00,
2013-10-22 11:09:00,52.0,19.0,30.31,NNW,338,3.0,3.0,27,0.00,,,0.00,Wunderground v.1.15,2013-10-22 17:09:00,
2013-10-22 11:14:00,52.2,19.2,30.31,NW,326,4.0,5.0,27,0.00,,,0.00,Wunderground v.1.15,2013-10-22 17:14:00,
2013-10-22 11:19:00,52.3,18.4,30.31,NNW,329,4.0,4.0,26,0.00,,,0.00,Wunderground v.1.15,2013-10-22 17:19:00,
2013-10-22 11:24:00,52.5,18.6,30.31,NNW,333,4.0,4.0,26,0.00,,,0.00,Wunderground v.1.15,2013-10-22 17:24:00,
2013-10-22 11:29:00,52.8,18.8,30.31,NNW,344,3.0,6.0,26,0.00,,,0.00,Wunderground v.1.15,2013-10-22 17:29:00,
2013-10-22 11:39:00,52.9,18.9,30.31,NW,323,3.0,6.0,26,0.00,,,0.00,Wunderground v.1.15,2013-10-22 17:39:00,
2013-10-22 11:44:00,53.1,20.0,30.31,NNW,339,3.0,6.0,27,0.00,,,0.00,Wunderground v.1.15,2013-10-22 17:44:00,
2013-10-22 11:54:00,53.3,20.1,30.30,NNW,335,4.0,4.0,27,0.00,,,0.00,Wunderground v.1.15,2013-10-22 17:54:00,
2013-10-22 11:59:00,53.7,20.5,30.30,NNW,329,3.0,3.0,27,0.00,,,0.00,Wunderground v.1.15,2013-10-22 17:59:00,
2013-10-22 12:09:00,53.8,19.7,30.30,North,355,3.0,3.0,26,0.00,,,0.00,Wunderground v.1.15,2013-10-22 18:09:00,
2013-10-22 12:14:00,53.7,18.7,30.30,NNW,331,4.0,5.0,25,0.00,,,0.00,Wunderground v.1.15,2013-10-22 18:14:00,
2013-10-22 12:24:00,54.0,18.9,30.30,NNW,336,5.0,6.0,25,0.00,,,0.00,Wunderground v.1.15,2013-10-22 18:24:00,
2013-10-22 12:29:00,54.3,19.2,30.29,NNW,346,4.0,4.0,25,0.00,,,0.00,Wunderground v.1.15,2013-10-22 18:29:00,
2013-10-22 12:39:00,54.6,18.5,30.29,NW,325,4.0,4.0,24,0.00,,,0.00,Wunderground v.1.15,2013-10-22 18:39:00,
2013-10-22 12:44:00,54.4,19.3,30.29,NNW,340,5.0,5.0,25,0.00,,,0.00,Wunderground v.1.15,2013-10-22 18:44:00,
2013-10-22 12:49:00,54.9,19.7,30.29,NNE,20,4.0,4.0,25,0.00,,,0.00,Wunderground v.1.15,2013-10-22 18:49:00,
2013-10-22 12:59:00,54.6,18.5,30.28,NNW,336,4.0,5.0,24,0.00,,,0.00,Wunderground v.1.15,2013-10-22 18:59:00,
2013-10-22 13:09:00,54.7,18.6,30.28,NNW,341,4.0,10.0,24,0.00,,,0.00,Wunderground v.1.15,2013-10-22 19:09:00,
2013-10-22 13:19:00,54.6,19.4,30.27,NNW,341,4.0,4.0,25,0.00,,,0.00,Wunderground v.1.15,2013-10-22 19:19:00,
2013-10-22 13:29:00,55.0,17.8,30.27,NNW,341,4.0,4.0,23,0.00,,,0.00,Wunderground v.1.15,2013-10-22 19:29:00,
2013-10-22 13:39:00,55.2,19.0,30.27,WNW,298,3.0,3.0,24,0.00,,,0.00,Wunderground v.1.15,2013-10-22 19:39:00,
2013-10-22 13:44:00,55.3,18.1,30.27,NNW,338,3.0,3.0,23,0.00,,,0.00,Wunderground v.1.15,2013-10-22 19:44:00,
2013-10-22 13:49:00,55.1,17.9,30.27,NNW,335,4.0,4.0,23,0.00,,,0.00,Wunderground v.1.15,2013-10-22 19:49:00,
2013-10-22 13:54:00,54.9,18.7,30.26,NNW,334,4.0,4.0,24,0.00,,,0.00,Wunderground v.1.15,2013-10-22 19:54:00,
2013-10-22 13:59:00,55.1,18.9,30.26,North,349,4.0,4.0,24,0.00,,,0.00,Wunderground v.1.15,2013-10-22 19:59:00,
2013-10-22 14:09:00,54.9,19.7,30.26,NNW,331,4.0,4.0,25,0.00,,,0.00,Wunderground v.1.15,2013-10-22 20:09:00,
2013-10-22 14:14:00,54.7,18.6,30.25,NW,325,3.0,4.0,24,0.00,,,0.00,Wunderground v.1.15,2013-10-22 20:14:00,
2013-10-22 14:19:00,54.7,18.6,30.25,NNW,338,3.0,3.0,24,0.00,,,0.00,Wunderground v.1.15,2013-10-22 20:19:00,
2013-10-22 14:24:00,55.2,20.9,30.25,NNW,333,4.0,6.0,26,0.00,,,0.00,Wunderground v.1.15,2013-10-22 20:24:00,
2013-10-22 14:29:00,55.4,20.1,30.25,NNW,348,3.0,3.0,25,0.00,,,0.00,Wunderground v.1.15,2013-10-22 20:29:00,
2013-10-22 14:39:00,55.6,19.3,30.24,NNW,338,3.0,4.0,24,0.00,,,0.00,Wunderground v.1.15,2013-10-22 20:39:00,
2013-10-22 14:49:00,55.4,19.2,30.24,NNW,331,4.0,6.0,24,0.00,,,0.00,Wunderground v.1.15,2013-10-22 20:49:00,
2013-10-22 14:54:00,55.7,20.4,30.24,NW,324,3.0,6.0,25,0.00,,,0.00,Wunderground v.1.15,2013-10-22 20:54:00,
2013-10-22 14:59:00,56.0,19.7,30.24,NNW,336,3.0,5.0,24,0.00,,,0.00,Wunderground v.1.15,2013-10-22 20:59:00,
2013-10-22 15:09:00,56.4,18.0,30.23,WNW,296,3.0,3.0,22,0.00,,,0.00,Wunderground v.1.15,2013-10-22 21:09:00,
2013-10-22 15:14:00,56.0,18.7,30.24,NNW,330,4.0,4.0,23,0.00,,,0.00,Wunderground v.1.15,2013-10-22 21:14:00,
2013-10-22 15:24:00,56.2,19.8,30.23,WNW,299,2.0,4.0,24,0.00,,,0.00,Wunderground v.1.15,2013-10-22 21:24:00,
2013-10-22 15:34:00,56.2,19.8,30.24,NNW,331,4.0,4.0,24,0.00,,,0.00,Wunderground v.1.15,2013-10-22 21:34:00,
2013-10-22 15:39:00,56.0,17.6,30.24,NW,319,4.0,4.0,22,0.00,,,0.00,Wunderground v.1.15,2013-10-22 21:39:00,
2013-10-22 15:44:00,55.9,17.6,30.23,NW,323,4.0,4.0,22,0.00,,,0.00,Wunderground v.1.15,2013-10-22 21:44:00,
2013-10-22 15:54:00,55.9,18.6,30.23,NNW,335,4.0,9.0,23,0.00,,,0.00,Wunderground v.1.15,2013-10-22 21:54:00,
2013-10-22 15:59:00,55.7,18.4,30.23,NW,312,3.0,4.0,23,0.00,,,0.00,Wunderground v.1.15,2013-10-22 21:59:00,
2013-10-22 16:09:00,55.6,22.1,30.23,NNW,331,4.0,4.0,27,0.00,,,0.00,Wunderground v.1.15,2013-10-22 22:09:00,
2013-10-22 16:14:00,54.8,22.3,30.23,NW,313,2.0,4.0,28,0.00,,,0.00,Wunderground v.1.15,2013-10-22 22:14:00,
2013-10-22 16:19:00,54.2,19.1,30.23,NW,325,1.0,6.0,25,0.00,,,0.00,Wunderground v.1.15,2013-10-22 22:19:00,
2013-10-22 16:24:00,54.1,22.5,30.23,WNW,303,2.0,6.0,29,0.00,,,0.00,Wunderground v.1.15,2013-10-22 22:24:00,
2013-10-22 16:34:00,52.4,21.8,30.23,WNW,302,1.0,2.0,30,0.00,,,0.00,Wunderground v.1.15,2013-10-22 22:34:00,
2013-10-22 16:39:00,51.9,22.2,30.22,NW,308,1.0,1.0,31,0.00,,,0.00,Wunderground v.1.15,2013-10-22 22:39:00,
2013-10-22 16:44:00,51.4,21.0,30.22,SW,231,0.0,1.0,30,0.00,,,0.00,Wunderground v.1.15,2013-10-22 22:44:00,
2013-10-22 16:49:00,50.5,22.4,30.22,SW,234,0.0,0.0,33,0.00,,,0.00,Wunderground v.1.15,2013-10-22 22:49:00,
2013-10-22 16:54:00,49.3,23.4,30.22,SW,234,0.0,0.0,36,0.00,,,0.00,Wunderground v.1.15,2013-10-22 22:54:00,
2013-10-22 16:59:00,48.5,23.4,30.22,SW,219,0.0,1.0,37,0.00,,,0.00,Wunderground v.1.15,2013-10-22 22:59:00,
2013-10-22 17:09:00,47.1,24.0,30.22,SW,219,0.0,0.0,40,0.00,,,0.00,Wunderground v.1.15,2013-10-22 23:09:00,
2013-10-22 17:14:00,46.5,24.6,30.22,SW,219,0.0,0.0,42,0.00,,,0.00,Wunderground v.1.15,2013-10-22 23:14:00,
2013-10-22 17:19:00,45.9,24.6,30.22,SW,219,0.0,0.0,43,0.00,,,0.00,Wunderground v.1.15,2013-10-22 23:19:00,
2013-10-22 17:24:00,45.1,26.1,30.22,SW,219,0.0,0.0,47,0.00,,,0.00,Wunderground v.1.15,2013-10-22 23:24:00,
2013-10-22 17:29:00,44.5,25.5,30.22,SW,219,0.0,0.0,47,0.00,,,0.00,Wunderground v.1.15,2013-10-22 23:29:00,
2013-10-22 17:39:00,42.8,27.7,30.22,SW,219,0.0,0.0,55,0.00,,,0.00,Wunderground v.1.15,2013-10-22 23:39:00,
2013-10-22 17:49:00,41.3,28.0,30.22,SW,219,0.0,0.0,59,0.00,,,0.00,Wunderground v.1.15,2013-10-22 23:49:00,
2013-10-22 17:54:00,40.8,28.4,30.23,SW,219,0.0,0.0,61,0.00,,,0.00,Wunderground v.1.15,2013-10-22 23:54:00,
2013-10-22 17:59:00,40.3,27.5,30.22,SW,219,0.0,0.0,60,0.00,,,0.00,Wunderground v.1.15,2013-10-22 23:59:00,
2013-10-22 18:09:00,39.4,27.8,30.23,SW,219,0.0,0.0,63,0.00,,,0.00,Wunderground v.1.15,2013-10-23 00:09:00,
2013-10-22 18:14:00,39.1,27.9,30.23,SW,219,0.0,0.0,64,0.00,,,0.00,Wunderground v.1.15,2013-10-23 00:14:00,
2013-10-22 18:24:00,38.4,26.9,30.23,SW,219,0.0,0.0,63,0.00,,,0.00,Wunderground v.1.15,2013-10-23 00:24:00,
2013-10-22 18:34:00,38.0,25.3,30.23,SW,219,0.0,0.0,60,0.00,,,0.00,Wunderground v.1.15,2013-10-23 00:34:00,
2013-10-22 18:39:00,37.8,25.5,30.23,SW,219,0.0,0.0,61,0.00,,,0.00,Wunderground v.1.15,2013-10-23 00:39:00,
2013-10-22 18:44:00,37.5,25.7,30.24,SW,219,0.0,0.0,62,0.00,,,0.00,Wunderground v.1.15,2013-10-23 00:44:00,
2013-10-22 18:49:00,37.3,24.7,30.24,SW,219,0.0,0.0,60,0.00,,,0.00,Wunderground v.1.15,2013-10-23 00:49:00,
2013-10-22 18:59:00,36.7,25.7,30.24,SW,219,0.0,0.0,64,0.00,,,0.00,Wunderground v.1.15,2013-10-23 00:59:00,
2013-10-22 19:09:00,35.9,25.3,30.24,SW,219,0.0,0.0,65,0.00,,,0.00,Wunderground v.1.15,2013-10-23 01:09:00,
2013-10-22 19:14:00,35.9,24.9,30.24,SW,219,0.0,0.0,64,0.00,,,0.00,Wunderground v.1.15,2013-10-23 01:14:00,
2013-10-22 19:19:00,36.1,23.5,30.25,SW,219,0.0,0.0,60,0.00,,,0.00,Wunderground v.1.15,2013-10-23 01:19:00,
2013-10-22 19:29:00,36.3,22.9,30.25,SW,219,0.0,0.0,58,0.00,,,0.00,Wunderground v.1.15,2013-10-23 01:29:00,
2013-10-22 19:39:00,36.0,22.6,30.25,SW,219,0.0,0.0,58,0.00,,,0.00,Wunderground v.1.15,2013-10-23 01:39:00,
2013-10-22 19:44:00,35.7,22.4,30.25,SW,219,0.0,0.0,58,0.00,,,0.00,Wunderground v.1.15,2013-10-23 01:44:00,
2013-10-22 19:49:00,35.7,22.4,30.25,SW,221,0.0,0.0,58,0.00,,,0.00,Wunderground v.1.15,2013-10-23 01:49:00,
2013-10-22 19:54:00,35.3,22.4,30.25,SW,221,0.0,0.0,59,0.00,,,0.00,Wunderground v.1.15,2013-10-23 01:54:00,
2013-10-22 19:59:00,35.0,22.5,30.26,ESE,115,0.0,0.0,60,0.00,,,0.00,Wunderground v.1.15,2013-10-23 01:59:00,
2013-10-22 20:09:00,34.8,23.1,30.26,East,99,0.0,1.0,62,0.00,,,0.00,Wunderground v.1.15,2013-10-23 02:09:00,
2013-10-22 20:14:00,34.7,22.2,30.26,East,97,0.0,3.0,60,0.00,,,0.00,Wunderground v.1.15,2013-10-23 02:14:00,
2013-10-22 20:19:00,35.0,22.1,30.26,East,97,1.0,1.0,59,0.00,,,0.00,Wunderground v.1.15,2013-10-23 02:19:00,
2013-10-22 20:24:00,35.0,22.1,30.26,East,98,1.0,7.0,59,0.00,,,0.00,Wunderground v.1.15,2013-10-23 02:24:00,
2013-10-22 20:34:00,35.6,21.0,30.26,East,100,3.0,6.0,55,0.00,,,0.00,Wunderground v.1.15,2013-10-23 02:34:00,
2013-10-22 20:44:00,35.4,21.2,30.26,ESE,107,3.0,3.0,56,0.00,,,0.00,Wunderground v.1.15,2013-10-23 02:44:00,
2013-10-22 20:49:00,35.3,21.2,30.26,East,96,2.0,2.0,56,0.00,,,0.00,Wunderground v.1.15,2013-10-23 02:49:00,
2013-10-22 20:54:00,35.1,21.4,30.27,East,96,2.0,2.0,57,0.00,,,0.00,Wunderground v.1.15,2013-10-23 02:54:00,
2013-10-22 20:59:00,34.8,21.1,30.27,ESE,105,1.0,3.0,57,0.00,,,0.00,Wunderground v.1.15,2013-10-23 02:59:00,
2013-10-22 21:09:00,34.7,20.6,30.27,East,99,1.0,2.0,56,0.00,,,0.00,Wunderground v.1.15,2013-10-23 03:09:00,
2013-10-22 21:19:00,34.4,20.7,30.27,ESE,105,2.0,3.0,57,0.00,,,0.00,Wunderground v.1.15,2013-10-23 03:19:00,
2013-10-22 21:24:00,34.6,20.5,30.27,East,87,3.0,5.0,56,0.00,,,0.00,Wunderground v.1.15,2013-10-23 03:24:00,
2013-10-22 21:29:00,34.6,20.1,30.28,East,88,4.0,5.0,55,0.00,,,0.00,Wunderground v.1.15,2013-10-23 03:29:00,
2013-10-22 21:39:00,34.4,19.9,30.28,East,96,5.0,6.0,55,0.00,,,0.00,Wunderground v.1.15,2013-10-23 03:39:00,
2013-10-22 21:44:00,34.4,19.9,30.28,East,95,6.0,7.0,55,0.00,,,0.00,Wunderground v.1.15,2013-10-23 03:44:00,
2013-10-22 21:49:00,34.3,19.8,30.28,East,99,6.0,6.0,55,0.00,,,0.00,Wunderground v.1.15,2013-10-23 03:49:00,
2013-10-22 21:59:00,34.2,19.7,30.28,East,83,6.0,6.0,55,0.00,,,0.00,Wunderground v.1.15,2013-10-23 03:59:00,
2013-10-22 22:04:00,34.1,19.6,30.28,ESE,109,6.0,6.0,55,0.00,,,0.00,Wunderground v.1.15,2013-10-23 04:04:00,
2013-10-22 22:09:00,34.0,19.5,30.28,ENE,57,6.0,6.0,55,0.00,,,0.00,Wunderground v.1.15,2013-10-23 04:09:00,
2013-10-22 22:19:00,33.8,19.3,30.28,East,97,5.0,6.0,55,0.00,,,0.00,Wunderground v.1.15,2013-10-23 04:19:00,
2013-10-22 22:24:00,33.7,19.2,30.28,East,84,5.0,6.0,55,0.00,,,0.00,Wunderground v.1.15,2013-10-23 04:24:00,
2013-10-22 22:29:00,33.7,19.2,30.28,East,97,5.0,5.0,55,0.00,,,0.00,Wunderground v.1.15,2013-10-23 04:29:00,
2013-10-22 22:34:00,33.6,19.1,30.28,East,99,6.0,6.0,55,0.00,,,0.00,Wunderground v.1.15,2013-10-23 04:34:00,
2013-10-22 22:39:00,33.5,19.0,30.28,East,101,6.0,6.0,55,0.00,,,0.00,Wunderground v.1.15,2013-10-23 04:39:00,
2013-10-22 22:44:00,33.4,19.4,30.28,East,90,6.0,6.0,56,0.00,,,0.00,Wunderground v.1.15,2013-10-23 04:44:00,
2013-10-22 22:49:00,33.3,19.3,30.28,East,96,6.0,6.0,56,0.00,,,0.00,Wunderground v.1.15,2013-10-23 04:49:00,
2013-10-22 22:54:00,33.1,19.1,30.28,East,98,5.0,6.0,56,0.00,,,0.00,Wunderground v.1.15,2013-10-23 04:54:00,
2013-10-22 22:59:00,33.0,19.4,30.28,East,93,5.0,7.0,57,0.00,,,0.00,Wunderground v.1.15,2013-10-23 04:59:00,
2013-10-22 23:09:00,32.8,19.2,30.28,East,101,5.0,6.0,57,0.00,,,0.00,Wunderground v.1.15,2013-10-23 05:09:00,
2013-10-22 23:14:00,32.6,19.4,30.28,ESE,111,4.0,6.0,58,0.00,,,0.00,Wunderground v.1.15,2013-10-23 05:14:00,
2013-10-22 23:19:00,32.6,19.4,30.28,ESE,106,4.0,5.0,58,0.00,,,0.00,Wunderground v.1.15,2013-10-23 05:19:00,
2013-10-22 23:24:00,32.3,19.6,30.28,East,82,4.0,6.0,59,0.00,,,0.00,Wunderground v.1.15,2013-10-23 05:24:00,
2013-10-22 23:34:00,32.1,19.4,30.28,ENE,74,3.0,4.0,59,0.00,,,0.00,Wunderground v.1.15,2013-10-23 05:34:00,
2013-10-22 23:39:00,32.2,19.5,30.28,East,95,4.0,6.0,59,0.00,,,0.00,Wunderground v.1.15,2013-10-23 05:39:00,
2013-10-22 23:44:00,32.2,19.5,30.28,East,94,5.0,6.0,59,0.00,,,0.00,Wunderground v.1.15,2013-10-23 05:44:00,
2013-10-22 23:49:00,32.2,19.5,30.28,East,98,5.0,5.0,59,0.00,,,0.00,Wunderground v.1.15,2013-10-23 05:49:00,
2013-10-22 23:54:00,32.1,19.4,30.28,ESE,109,5.0,7.0,59,0.00,,,0.00,Wunderground v.1.15,2013-10-23 05:54:00,
2013-10-22 23:59:00,32.2,19.5,30.28,East,96,5.0,5.0,59,0.00,,,0.00,Wunderground v.1.15,2013-10-23 05:59:00,